CST404X SBGR-SAEZ

Flight info

Callsign CST404X
Flight time N/A
Altitude 32000
Route UBSOD UZ38 UMDEX DCT CXS DCT UMRUD UN741 PAPIX PAPIX7A
Aircraft B77L/H-SDE1E2E3FGHIJ2J3J4J5M1RWXY/LB1D1

Departure

Time 2026-05-05 17:39
Airport São Paulo/Guarulhos–Governor André Franco Montoro International Airport (SBGR)

Arrival

Time N/A
Airport Ezeiza International Airport - Ministro Pistarini (SAEZ)
Time Latitude Longitude Altitude Speed Heading
2026-05-05 17:23 -23.42685 -46.48807 2469 ft 0 kts 275°
2026-05-05 17:30 -23.42687 -46.48788 2469 ft 4 kts 276°
2026-05-05 17:30 -23.42689 -46.48763 2469 ft 4 kts 281°
2026-05-05 17:30 -23.42700 -46.48741 2471 ft 4 kts 336°
2026-05-05 17:30 -23.42726 -46.48735 2469 ft 4 kts
2026-05-05 17:31 -23.42751 -46.48738 2469 ft 4 kts
2026-05-05 17:31 -23.42778 -46.48741 2470 ft 4 kts
2026-05-05 17:31 -23.42805 -46.48743 2469 ft 4 kts
2026-05-05 17:31 -23.42832 -46.48746 2471 ft 4 kts
2026-05-05 17:32 -23.42859 -46.48749 2469 ft 4 kts
2026-05-05 17:32 -23.42886 -46.48752 2469 ft 4 kts
2026-05-05 17:32 -23.42913 -46.48755 2469 ft 4 kts
2026-05-05 17:32 -23.42940 -46.48758 2469 ft 4 kts
2026-05-05 17:33 -23.42967 -46.48761 2473 ft 4 kts
2026-05-05 17:33 -23.42994 -46.48764 2469 ft 4 kts
2026-05-05 17:33 -23.43021 -46.48767 2474 ft 4 kts
2026-05-05 17:33 -23.43031 -46.48768 2472 ft 1 kts
2026-05-05 17:35 -23.43008 -46.48765 2469 ft 10 kts 12°
2026-05-05 17:35 -23.42978 -46.48693 2469 ft 12 kts 93°
2026-05-05 17:36 -23.42986 -46.48602 2471 ft 12 kts 96°
2026-05-05 17:36 -23.42995 -46.48513 2473 ft 12 kts 96°
2026-05-05 17:36 -23.43038 -46.48441 2475 ft 12 kts 152°
2026-05-05 17:36 -23.43123 -46.48419 2473 ft 14 kts 168°
2026-05-05 17:37 -23.43216 -46.48391 2474 ft 14 kts 161°
2026-05-05 17:37 -23.43263 -46.48350 2475 ft 12 kts 142°
2026-05-05 17:37 -23.43385 -46.48334 2470 ft 15 kts 155°
2026-05-05 17:37 -23.43401 -46.48231 2466 ft 15 kts 74°
2026-05-05 17:38 -23.43360 -46.48081 2470 ft 40 kts 73°
2026-05-05 17:38 -23.43215 -46.47549 2466 ft 105 kts 73°
2026-05-05 17:38 -23.42958 -46.46596 2472 ft 156 kts 73°
2026-05-05 17:38 -23.42611 -46.45324 2521 ft 188 kts 73°
2026-05-05 17:39 -23.42252 -46.43957 2976 ft 189 kts 74°
2026-05-05 17:39 -23.41912 -46.42553 3432 ft 197 kts 77°
2026-05-05 17:39 -23.41558 -46.41101 3900 ft 198 kts 72°
2026-05-05 17:39 -23.41097 -46.39675 4325 ft 206 kts 71°
2026-05-05 17:40 -23.40601 -46.38120 4532 ft 229 kts 72°
2026-05-05 17:40 -23.40139 -46.36383 4670 ft 248 kts 88°
2026-05-05 17:40 -23.40475 -46.34499 4948 ft 262 kts 112°
2026-05-05 17:40 -23.41145 -46.32614 5493 ft 271 kts 110°
2026-05-05 17:41 -23.41782 -46.30674 6227 ft 274 kts 110°
2026-05-05 17:41 -23.42423 -46.28709 6934 ft 277 kts 110°
2026-05-05 17:41 -23.43212 -46.26792 7520 ft 280 kts 127°
2026-05-05 17:41 -23.44714 -46.25450 8091 ft 283 kts 158°
2026-05-05 17:42 -23.46602 -46.25044 8839 ft 282 kts 182°
2026-05-05 17:42 -23.48554 -46.25342 9357 ft 287 kts 191°
2026-05-05 17:42 -23.50536 -46.25765 10033 ft 291 kts 191°
2026-05-05 17:42 -23.52536 -46.26187 10659 ft 296 kts 191°
2026-05-05 17:43 -23.54528 -46.26951 10814 ft 317 kts 213°
2026-05-05 17:43 -23.56075 -46.28745 10999 ft 340 kts 242°
2026-05-05 17:43 -23.56813 -46.31258 11151 ft 359 kts 258°
2026-05-05 17:43 -23.57305 -46.34002 11488 ft 376 kts 258°
2026-05-05 17:44 -23.57819 -46.36835 12105 ft 385 kts 258°
2026-05-05 17:44 -23.58345 -46.39647 12931 ft 388 kts 258°
2026-05-05 17:44 -23.58901 -46.42542 13787 ft 392 kts 258°
2026-05-05 17:44 -23.59473 -46.45463 14496 ft 397 kts 258°
2026-05-05 17:45 -23.60059 -46.48428 15213 ft 402 kts 257°
2026-05-05 17:45 -23.60650 -46.51415 15924 ft 404 kts 257°
2026-05-05 17:45 -23.61194 -46.54441 16571 ft 409 kts 259°
2026-05-05 17:45 -23.61626 -46.57528 17249 ft 414 kts 261°
2026-05-05 17:46 -23.62053 -46.60651 17932 ft 418 kts 260°
2026-05-05 17:46 -23.62501 -46.63765 18555 ft 419 kts 258°
2026-05-05 17:46 -23.63348 -46.66816 18953 ft 424 kts 241°
2026-05-05 17:46 -23.64954 -46.69505 19408 ft 424 kts 233°
2026-05-05 17:47 -23.66640 -46.72167 19951 ft 428 kts 236°
2026-05-05 17:47 -23.68259 -46.74905 20568 ft 429 kts 237°
2026-05-05 17:47 -23.69861 -46.77660 21171 ft 428 kts 235°
2026-05-05 17:47 -23.71840 -46.80100 21535 ft 434 kts 217°
2026-05-05 17:48 -23.74435 -46.81769 21938 ft 434 kts 207°
2026-05-05 17:48 -23.77126 -46.83338 22338 ft 441 kts 209°
2026-05-05 17:48 -23.79809 -46.84991 22906 ft 443 kts 210°
2026-05-05 17:48 -23.82449 -46.86653 23516 ft 445 kts 210°
2026-05-05 17:49 -23.85132 -46.88356 24005 ft 447 kts 210°
2026-05-05 17:49 -23.87831 -46.90071 24471 ft 450 kts 210°
2026-05-05 17:49 -23.90543 -46.91792 24962 ft 452 kts 210°
2026-05-05 17:49 -23.93265 -46.93517 25469 ft 453 kts 210°
2026-05-05 17:50 -23.96006 -46.95251 25990 ft 455 kts 210°
2026-05-05 17:50 -23.98755 -46.96990 26495 ft 457 kts 211°
2026-05-05 17:50 -24.01519 -46.98738 26981 ft 459 kts 211°
2026-05-05 17:50 -24.04290 -47.00493 27462 ft 461 kts 211°
2026-05-05 17:51 -24.07074 -47.02256 27935 ft 464 kts 211°
2026-05-05 17:51 -24.09874 -47.04031 28378 ft 466 kts 211°
2026-05-05 17:51 -24.12692 -47.05819 28836 ft 468 kts 211°
2026-05-05 17:51 -24.15516 -47.07611 29278 ft 470 kts 211°
2026-05-05 17:52 -24.18353 -47.09412 29708 ft 472 kts 211°
2026-05-05 17:52 -24.21160 -47.11195 30113 ft 474 kts 211°
2026-05-05 17:52 -24.24013 -47.13008 30563 ft 473 kts 211°
2026-05-05 17:52 -24.26850 -47.14814 31137 ft 468 kts 212°
2026-05-05 17:53 -24.29615 -47.16658 31744 ft 463 kts 213°
2026-05-05 17:53 -24.32332 -47.18545 32174 ft 462 kts 214°
2026-05-05 17:53 -24.35056 -47.20465 32140 ft 467 kts 214°
2026-05-05 17:53 -24.37786 -47.22393 32259 ft 467 kts 214°
2026-05-05 17:54 -24.40515 -47.24313 32700 ft 464 kts 214°
2026-05-05 17:54 -24.43225 -47.26212 33310 ft 458 kts 214°
2026-05-05 17:54 -24.45897 -47.28078 33921 ft 453 kts 214°
2026-05-05 17:54 -24.48557 -47.29932 34151 ft 455 kts 214°
2026-05-05 17:55 -24.51244 -47.31805 34159 ft 459 kts 214°
2026-05-05 17:55 -24.56664 -47.35583 34146 ft 461 kts 214°
2026-05-05 17:56 -24.62057 -47.39345 34134 ft 458 kts 214°
2026-05-05 17:56 -24.67416 -47.43088 34143 ft 456 kts 214°
2026-05-05 17:57 -24.72739 -47.46810 34138 ft 455 kts 214°
2026-05-05 17:57 -24.78086 -47.50554 34141 ft 456 kts 214°
2026-05-05 17:58 -24.82535 -47.53672 34149 ft 456 kts 214°
2026-05-05 17:58 -24.88783 -47.58054 34138 ft 458 kts 214°
2026-05-05 17:59 -24.93291 -47.61220 34137 ft 458 kts 214°
2026-05-05 17:59 -24.98675 -47.65004 34139 ft 459 kts 214°
2026-05-05 18:00 -25.04031 -47.68773 34135 ft 460 kts 214°
2026-05-05 18:00 -25.09421 -47.72569 34142 ft 460 kts 214°
2026-05-05 18:01 -25.14819 -47.76375 34149 ft 460 kts 214°
2026-05-05 18:01 -25.20211 -47.80181 34132 ft 460 kts 214°
2026-05-05 18:02 -25.25603 -47.83992 34134 ft 460 kts 214°
2026-05-05 18:02 -25.30956 -47.87778 34141 ft 460 kts 215°
2026-05-05 18:03 -25.36339 -47.91604 34143 ft 459 kts 215°
2026-05-05 18:03 -25.41718 -47.95437 34140 ft 459 kts 215°
2026-05-05 18:04 -25.47088 -47.99268 34135 ft 459 kts 215°
2026-05-05 18:04 -25.52459 -48.03103 34142 ft 459 kts 215°
2026-05-05 18:05 -25.57785 -48.06910 34137 ft 458 kts 215°
2026-05-05 18:05 -25.63150 -48.10748 34138 ft 458 kts 215°
2026-05-05 18:06 -25.68511 -48.14559 34138 ft 458 kts 215°
2026-05-05 18:06 -25.73874 -48.18363 34148 ft 457 kts 215°
2026-05-05 18:07 -25.79232 -48.22170 34137 ft 458 kts 215°
2026-05-05 18:07 -25.84591 -48.25986 34136 ft 458 kts 215°
2026-05-05 18:08 -25.89956 -48.29811 34137 ft 458 kts 215°
2026-05-05 18:08 -25.95286 -48.33616 34137 ft 458 kts 215°
2026-05-05 18:09 -26.00651 -48.37449 34139 ft 458 kts 215°
2026-05-05 18:09 -26.06023 -48.41292 34134 ft 459 kts 215°
2026-05-05 18:10 -26.11399 -48.45141 34131 ft 459 kts 215°
2026-05-05 18:10 -26.16765 -48.48989 34132 ft 459 kts 215°
2026-05-05 18:11 -26.22137 -48.52845 34131 ft 459 kts 215°
2026-05-05 18:11 -26.27482 -48.56684 34130 ft 459 kts 215°
2026-05-05 18:12 -26.32852 -48.60562 34128 ft 459 kts 215°
2026-05-05 18:12 -26.38217 -48.64448 34134 ft 459 kts 215°
2026-05-05 18:13 -26.43575 -48.68331 34128 ft 459 kts 215°
2026-05-05 18:13 -26.48925 -48.72218 34127 ft 459 kts 216°
2026-05-05 18:14 -26.54224 -48.76104 34125 ft 458 kts 216°
2026-05-05 18:14 -26.59551 -48.80018 34126 ft 458 kts 216°
2026-05-05 18:15 -26.64878 -48.83932 34127 ft 457 kts 216°
2026-05-05 18:15 -26.70201 -48.87834 34128 ft 458 kts 216°
2026-05-05 18:16 -26.75500 -48.91701 34131 ft 458 kts 216°
2026-05-05 18:16 -26.80836 -48.95600 34127 ft 457 kts 216°
2026-05-05 18:17 -26.86165 -48.99501 34125 ft 457 kts 216°
2026-05-05 18:17 -26.91493 -49.03407 34123 ft 457 kts 216°
2026-05-05 18:18 -26.96814 -49.07313 34127 ft 457 kts 216°
2026-05-05 18:18 -27.02135 -49.11223 34131 ft 457 kts 216°
2026-05-05 18:19 -27.07449 -49.15132 34130 ft 457 kts 216°
2026-05-05 18:19 -27.12740 -49.19033 34131 ft 457 kts 216°
2026-05-05 18:20 -27.18050 -49.22949 34140 ft 456 kts 216°
2026-05-05 18:20 -27.23362 -49.26870 34147 ft 456 kts 216°
2026-05-05 18:21 -27.28674 -49.30795 34170 ft 456 kts 216°
2026-05-05 18:21 -27.33964 -49.34716 34149 ft 454 kts 216°
2026-05-05 18:22 -27.39240 -49.38622 34152 ft 453 kts 216°
2026-05-05 18:22 -27.44511 -49.42529 34166 ft 453 kts 216°
2026-05-05 18:23 -27.49745 -49.46418 34165 ft 454 kts 216°
2026-05-05 18:23 -27.55002 -49.50373 34161 ft 454 kts 218°
2026-05-05 18:24 -27.59816 -49.54939 34180 ft 451 kts 224°
2026-05-05 18:24 -27.64481 -49.59669 34167 ft 451 kts 224°
2026-05-05 18:25 -27.69149 -49.64385 34178 ft 450 kts 224°
2026-05-05 18:25 -27.73813 -49.69085 34168 ft 450 kts 224°
2026-05-05 18:26 -27.78487 -49.73793 34173 ft 449 kts 224°
2026-05-05 18:26 -27.83150 -49.78495 34179 ft 449 kts 224°
2026-05-05 18:27 -27.87808 -49.83196 34171 ft 449 kts 224°
2026-05-05 18:27 -27.92436 -49.87874 34174 ft 448 kts 224°
2026-05-05 18:28 -27.99403 -49.94927 34179 ft 447 kts 224°
2026-05-05 18:28 -28.04036 -49.99625 34174 ft 447 kts 224°
2026-05-05 18:29 -28.08655 -50.04313 34176 ft 445 kts 224°
2026-05-05 18:29 -28.13267 -50.08999 34178 ft 444 kts 224°
2026-05-05 18:30 -28.17870 -50.13685 34179 ft 444 kts 224°
2026-05-05 18:30 -28.22466 -50.18367 34158 ft 444 kts 224°
2026-05-05 18:31 -28.27037 -50.23033 34177 ft 445 kts 224°
2026-05-05 18:31 -28.31638 -50.27732 34181 ft 445 kts 224°
2026-05-05 18:32 -28.36243 -50.32437 34170 ft 445 kts 225°
2026-05-05 18:32 -28.40838 -50.37145 34169 ft 445 kts 225°
2026-05-05 18:33 -28.45438 -50.41854 34163 ft 445 kts 225°
2026-05-05 18:33 -28.50033 -50.46570 34157 ft 445 kts 225°
2026-05-05 18:34 -28.54629 -50.51295 34136 ft 445 kts 225°
2026-05-05 18:34 -28.59219 -50.56017 34154 ft 445 kts 225°
2026-05-05 18:35 -28.63815 -50.60750 34151 ft 445 kts 225°
2026-05-05 18:35 -28.68373 -50.65451 34140 ft 445 kts 225°
2026-05-05 18:36 -28.72957 -50.70184 34132 ft 444 kts 225°
2026-05-05 18:36 -28.77531 -50.74914 34144 ft 443 kts 225°
2026-05-05 18:37 -28.82093 -50.79638 34137 ft 443 kts 225°
2026-05-05 18:37 -28.86658 -50.84365 34131 ft 442 kts 225°
2026-05-05 18:38 -28.91215 -50.89096 34115 ft 442 kts 225°
2026-05-05 18:38 -28.95733 -50.93791 34130 ft 442 kts 225°
2026-05-05 18:39 -29.00285 -50.98526 34168 ft 443 kts 225°
2026-05-05 18:39 -29.04838 -51.03269 34165 ft 443 kts 225°
2026-05-05 18:40 -29.09395 -51.08023 34175 ft 443 kts 225°
2026-05-05 18:40 -29.13948 -51.12777 34182 ft 442 kts 225°
2026-05-05 18:41 -29.18465 -51.17521 34183 ft 441 kts 227°
2026-05-05 18:41 -29.22490 -51.22775 34192 ft 438 kts 234°
2026-05-05 18:42 -29.26198 -51.28318 34184 ft 438 kts 234°
2026-05-05 18:42 -29.29925 -51.33861 34161 ft 439 kts 234°
2026-05-05 18:43 -29.33025 -51.38462 34143 ft 439 kts 234°
2026-05-05 18:43 -29.37359 -51.44895 34098 ft 438 kts 234°
2026-05-05 18:44 -29.40453 -51.49496 34104 ft 438 kts 234°
2026-05-05 18:44 -29.44174 -51.55030 34076 ft 437 kts 234°
2026-05-05 18:45 -29.47886 -51.60559 34082 ft 436 kts 234°
2026-05-05 18:45 -29.51586 -51.66081 34066 ft 436 kts 235°
2026-05-05 18:46 -29.55286 -51.71612 34061 ft 436 kts 234°
2026-05-05 18:46 -29.58977 -51.77134 34056 ft 435 kts 234°
2026-05-05 18:47 -29.62642 -51.82625 34053 ft 435 kts 235°
2026-05-05 18:47 -29.66327 -51.88154 34053 ft 436 kts 235°
2026-05-05 18:48 -29.70019 -51.93700 34055 ft 436 kts 235°
2026-05-05 18:48 -29.73716 -51.99261 34048 ft 437 kts 235°
2026-05-05 18:49 -29.77408 -52.04824 34052 ft 437 kts 235°
2026-05-05 18:49 -29.81078 -52.10359 34048 ft 438 kts 235°
2026-05-05 18:50 -29.84771 -52.15937 34053 ft 438 kts 235°
2026-05-05 18:50 -29.88466 -52.21525 34052 ft 438 kts 235°
2026-05-05 18:51 -29.92152 -52.27108 34048 ft 437 kts 235°
2026-05-05 18:51 -29.95825 -52.32680 34039 ft 436 kts 235°
2026-05-05 18:52 -29.99494 -52.38253 34046 ft 435 kts 235°
2026-05-05 18:52 -30.03159 -52.43827 34046 ft 436 kts 235°
2026-05-05 18:53 -30.06798 -52.49370 34047 ft 436 kts 236°
2026-05-05 18:53 -30.10459 -52.54953 34047 ft 436 kts 236°
2026-05-05 18:54 -30.14127 -52.60555 34054 ft 437 kts 236°
2026-05-05 18:54 -30.17797 -52.66169 34058 ft 438 kts 236°
2026-05-05 18:55 -30.21473 -52.71798 34061 ft 439 kts 236°
2026-05-05 18:55 -30.25151 -52.77439 34052 ft 439 kts 236°
2026-05-05 18:56 -30.28832 -52.83092 34058 ft 440 kts 236°
2026-05-05 18:56 -30.32516 -52.88758 34087 ft 441 kts 236°
2026-05-05 18:57 -30.36180 -52.94402 34058 ft 441 kts 236°
2026-05-05 18:57 -30.39858 -53.00074 34052 ft 439 kts 236°
2026-05-05 18:58 -30.43524 -53.05735 34047 ft 438 kts 236°
2026-05-05 18:58 -30.47176 -53.11384 34050 ft 438 kts 236°
2026-05-05 18:59 -30.50824 -53.17035 34051 ft 438 kts 236°
2026-05-05 18:59 -30.54473 -53.22695 34049 ft 438 kts 236°
2026-05-05 19:00 -30.58119 -53.28358 34052 ft 438 kts 237°
2026-05-05 19:00 -30.61766 -53.34032 34053 ft 439 kts 237°
2026-05-05 19:01 -30.65415 -53.39717 34049 ft 439 kts 237°
2026-05-05 19:01 -30.69046 -53.45383 34040 ft 440 kts 237°
2026-05-05 19:02 -30.72691 -53.51075 34047 ft 440 kts 237°
2026-05-05 19:02 -30.76337 -53.56781 34044 ft 440 kts 237°
2026-05-05 19:03 -30.79987 -53.62499 34039 ft 440 kts 237°
2026-05-05 19:03 -30.83636 -53.68223 34038 ft 440 kts 237°
2026-05-05 19:04 -30.87282 -53.73953 34040 ft 440 kts 237°
2026-05-05 19:04 -30.90896 -53.79640 34036 ft 439 kts 237°
2026-05-05 19:05 -30.94527 -53.85362 34032 ft 438 kts 237°
2026-05-05 19:05 -30.98146 -53.91073 34035 ft 437 kts 237°
2026-05-05 19:06 -31.01758 -53.96782 34031 ft 437 kts 237°
2026-05-05 19:06 -31.05357 -54.02478 34029 ft 436 kts 237°
2026-05-05 19:07 -31.08949 -54.08171 34026 ft 435 kts 237°
2026-05-05 19:07 -31.12532 -54.13859 34027 ft 434 kts 237°
2026-05-05 19:08 -31.16107 -54.19543 34027 ft 434 kts 237°
2026-05-05 19:08 -31.19686 -54.25241 34021 ft 434 kts 237°
2026-05-05 19:09 -31.23257 -54.30935 34021 ft 434 kts 237°
2026-05-05 19:09 -31.26828 -54.36637 34029 ft 435 kts 237°
2026-05-05 19:10 -31.30378 -54.42315 34020 ft 435 kts 237°
2026-05-05 19:10 -31.33955 -54.48042 34017 ft 435 kts 237°
2026-05-05 19:11 -31.37524 -54.53768 34015 ft 435 kts 237°
2026-05-05 19:11 -31.41096 -54.59503 34017 ft 435 kts 237°
2026-05-05 19:12 -31.44854 -54.65083 34017 ft 438 kts 232°
2026-05-05 19:12 -31.49295 -54.70039 34019 ft 442 kts 227°
2026-05-05 19:13 -31.53818 -54.74858 34005 ft 442 kts 227°
2026-05-05 19:13 -31.58361 -54.79729 34007 ft 442 kts 227°
2026-05-05 19:14 -31.62891 -54.84609 34010 ft 442 kts 227°
2026-05-05 19:14 -31.67423 -54.89505 34009 ft 443 kts 227°
2026-05-05 19:15 -31.71956 -54.94410 34017 ft 444 kts 227°
2026-05-05 19:15 -31.76499 -54.99331 34010 ft 445 kts 227°
2026-05-05 19:16 -31.81050 -55.04267 34006 ft 446 kts 227°
2026-05-05 19:16 -31.85610 -55.09220 34010 ft 446 kts 227°
2026-05-05 19:17 -31.90145 -55.14152 34009 ft 447 kts 227°
2026-05-05 19:17 -31.94715 -55.19130 34009 ft 447 kts 227°
2026-05-05 19:18 -31.99277 -55.24106 34015 ft 447 kts 228°
2026-05-05 19:18 -32.03853 -55.29105 34011 ft 448 kts 228°
2026-05-05 19:19 -32.08429 -55.34110 34005 ft 449 kts 228°
2026-05-05 19:19 -32.12982 -55.39097 34003 ft 450 kts 228°
2026-05-05 19:20 -32.17566 -55.44126 34001 ft 450 kts 228°
2026-05-05 19:20 -32.22144 -55.49155 34001 ft 450 kts 228°
2026-05-05 19:21 -32.26725 -55.54194 34009 ft 449 kts 229°
2026-05-05 19:21 -32.31300 -55.59235 33999 ft 449 kts 229°
2026-05-05 19:22 -32.35870 -55.64278 34000 ft 449 kts 229°
2026-05-05 19:22 -32.40402 -55.69285 33998 ft 448 kts 229°
2026-05-05 19:23 -32.44959 -55.74327 34002 ft 448 kts 229°
2026-05-05 19:23 -32.49503 -55.79363 34008 ft 447 kts 229°
2026-05-05 19:24 -32.54050 -55.84410 34002 ft 448 kts 229°
2026-05-05 19:24 -32.58594 -55.89460 34002 ft 448 kts 229°
2026-05-05 19:25 -32.63142 -55.94523 33996 ft 448 kts 229°
2026-05-05 19:25 -32.67690 -55.99593 33990 ft 448 kts 229°
2026-05-05 19:26 -32.72210 -56.04639 33994 ft 449 kts 229°
2026-05-05 19:26 -32.76764 -56.09730 34009 ft 450 kts 229°
2026-05-05 19:27 -32.81327 -56.14838 33994 ft 451 kts 229°
2026-05-05 19:27 -32.85892 -56.19958 33991 ft 451 kts 229°
2026-05-05 19:28 -32.90457 -56.25084 33996 ft 451 kts 230°
2026-05-05 19:28 -32.95018 -56.30214 33999 ft 451 kts 229°
2026-05-05 19:29 -32.99576 -56.35349 33994 ft 451 kts 230°
2026-05-05 19:29 -33.04121 -56.40502 33999 ft 450 kts 231°
2026-05-05 19:30 -33.08624 -56.45621 33994 ft 448 kts 231°
2026-05-05 19:30 -33.13130 -56.50748 33992 ft 447 kts 231°
2026-05-05 19:31 -33.16892 -56.55034 33998 ft 446 kts 231°
2026-05-05 19:31 -33.21363 -56.60129 33993 ft 446 kts 231°
2026-05-05 19:32 -33.25848 -56.65247 33991 ft 446 kts 231°
2026-05-05 19:32 -33.30332 -56.70372 33988 ft 446 kts 231°
2026-05-05 19:33 -33.34812 -56.75501 34012 ft 446 kts 231°
2026-05-05 19:33 -33.39298 -56.80645 33986 ft 446 kts 231°
2026-05-05 19:34 -33.43769 -56.85779 33987 ft 445 kts 230°